Weather History for Keene, NH

Change the Weather History Date:

Sunday, February 10, 2013

  Actual Average Record
Temperature  
Mean Temperature 13 °F -  
Max Temperature 33 °F 32 °F 53 °F (1955)
Min Temperature -7 °F 6 °F -23 °F (1948)
Degree Days  
Heating Degree Days 52    
Moisture  
Dew Point 1 °F    
Average Humidity 58    
Maximum Humidity 92    
Minimum Humidity 22    
Precipitation  
Precipitation 0.00 in - - ()
Sea Level Pressure  
Sea Level Pressure 30.35 in    
Wind  
Wind Speed 4 mph (North)    
Max Wind Speed 12 mph    
Max Gust Speed -    
Visibility 10 miles    
Events      
Averages and records for this station are not official NWS values.
T = Trace of Precipitation, MM = Missing Value Source: NWS Daily Summary

Daily Weather History Graph

Daily Weather History Graph

Search for Another Location

Airport:

Trip Planner

Search our weather history database for the weather conditions in past years. The results will help you decide how hot, cold, wet, or windy it might be!

Date:

Astronomy

Feb. 10, 2013 Rise Set
Actual Time 6:52 AM EST 5:14 PM EST
Civil Twilight 6:23 AM EST 5:43 PM EST
Nautical Twilight 5:50 AM EST 6:17 PM EST
Astronomical Twilight 5:17 AM EST 6:50 PM EST
Moon 6:39 AM EST (2/10) 6:04 PM EST (2/10)
Length of Visible Light 11h 20m
Length of Day
10h 21m
New Moon, 0% of the Moon is Illuminated
Feb 10
New Moon
Feb 17
First Quarter
Feb 25
Full
Mar 4
Last Quarter
Mar 11
New

Hourly Weather History & Observations

Time (EST) Temp. Windchill Dew Point Humidity Pressure Visibility Wind Dir Wind Speed Gust Speed Precip Events Conditions
12:15 AM 10.4 °F 0.8 °F -2.2 °F 57% 30.25 in 10.0 mi NNE 5.8 mph - N/A   Clear
12:35 AM 12.2 °F 4.3 °F -2.2 °F 53% 30.25 in 10.0 mi NNE 4.6 mph - N/A   Clear
12:55 AM 12.2 °F 0.7 °F -2.2 °F 53% 30.25 in 10.0 mi NNE 8.1 mph - N/A   Clear
1:15 AM 12.2 °F -1.8 °F -2.2 °F 53% 30.26 in 10.0 mi NNW 11.5 mph - N/A   Clear
1:35 AM 12.2 °F -1.0 °F -4.0 °F 48% 30.26 in 10.0 mi NNE 10.4 mph - N/A   Clear
1:55 AM 12.2 °F 0.7 °F -4.0 °F 48% 30.27 in 10.0 mi North 8.1 mph - N/A   Clear
2:15 AM 10.4 °F -2.4 °F -4.0 °F 52% 30.28 in 10.0 mi NNE 9.2 mph - N/A   Clear
2:35 AM 10.4 °F -0.4 °F -4.0 °F 52% 30.28 in 10.0 mi North 6.9 mph - N/A   Clear
2:55 AM 10.4 °F -2.4 °F -4.0 °F 52% 30.28 in 10.0 mi North 9.2 mph - N/A   Clear
3:15 AM 10.4 °F -0.4 °F -5.8 °F 48% 30.28 in 10.0 mi NNE 6.9 mph - N/A   Clear
3:35 AM 10.4 °F 4.0 °F -4.0 °F 52% 30.28 in 10.0 mi North 3.5 mph - N/A   Clear
3:55 AM 8.6 °F - -5.8 °F 52% 30.29 in 10.0 mi Calm Calm - N/A   Clear
4:15 AM 8.6 °F 2.0 °F -2.2 °F 62% 30.30 in 10.0 mi NE 3.5 mph - N/A   Clear
4:35 AM 3.2 °F - -7.6 °F 61% 30.32 in 10.0 mi Calm Calm - N/A   Clear
4:55 AM 1.4 °F - -9.4 °F 61% 30.33 in 10.0 mi Calm Calm - N/A   Clear
5:35 AM -2.2 °F -10.4 °F -11.2 °F 66% 30.34 in 10.0 mi South 3.5 mph - N/A   Clear
5:55 AM -4.0 °F - -7.6 °F 85% 30.35 in 10.0 mi Calm Calm - N/A   Clear
6:15 AM -4.0 °F - -7.6 °F 85% 30.35 in 10.0 mi Calm Calm - N/A   Clear
6:35 AM -7.6 °F -16.5 °F -11.2 °F 84% 30.37 in 10.0 mi South 3.5 mph - N/A   Clear
6:55 AM -5.8 °F - -9.4 °F 84% 30.38 in 10.0 mi Calm Calm - N/A   Clear
7:35 AM -7.6 °F - - N/A% 30.41 in 10.0 mi Calm Calm - N/A   Clear
7:55 AM -4.0 °F - -7.6 °F 85% 30.41 in 10.0 mi Calm Calm - N/A   Clear
8:15 AM -2.2 °F - -7.6 °F 78% 30.42 in 10.0 mi Calm Calm - N/A   Clear
8:35 AM -0.4 °F - -4.0 °F 85% 30.43 in 10.0 mi Calm Calm - N/A   Clear
8:55 AM 1.4 °F - -2.2 °F 85% 30.44 in 10.0 mi Calm Calm - N/A   Clear
9:15 AM 6.8 °F - -0.4 °F 72% 30.45 in 10.0 mi Calm Calm - N/A   Clear
9:35 AM 10.4 °F - -0.4 °F 62% 30.45 in 10.0 mi Calm Calm - N/A   Clear
9:55 AM 10.4 °F - -0.4 °F 62% 30.45 in 10.0 mi Calm Calm - N/A   Clear
10:15 AM 14.0 °F - 1.4 °F 57% 30.45 in 10.0 mi Calm Calm - N/A   Clear
10:35 AM 17.6 °F - 1.4 °F 49% 30.45 in 10.0 mi Calm Calm - N/A   Clear
10:55 AM 19.4 °F - 1.4 °F 46% 30.45 in 10.0 mi Calm Calm - N/A   Clear
11:15 AM 21.2 °F - 1.4 °F 42% 30.44 in 10.0 mi Calm Calm - N/A   Clear
11:35 AM 21.2 °F - -0.4 °F 39% 30.44 in 10.0 mi Calm Calm - N/A   Clear
11:55 AM 24.8 °F 17.9 °F 1.4 °F 36% 30.42 in 10.0 mi North 5.8 mph - N/A   Clear
12:15 PM 26.6 °F 18.2 °F -0.4 °F 31% 30.40 in 10.0 mi North 8.1 mph - N/A   Clear
12:35 PM 26.6 °F 18.2 °F -0.4 °F 31% 30.39 in 10.0 mi NNW 8.1 mph - N/A   Clear
12:55 PM 28.4 °F 19.7 °F -0.4 °F 29% 30.38 in 10.0 mi North 9.2 mph - N/A   Clear
1:15 PM 28.4 °F 20.4 °F -0.4 °F 29% 30.37 in 10.0 mi NNW 8.1 mph - N/A   Clear
1:35 PM 30.2 °F 22.6 °F -0.4 °F 27% 30.36 in 10.0 mi North 8.1 mph - N/A   Clear
1:55 PM 30.2 °F 21.3 °F -0.4 °F 27% 30.35 in 10.0 mi North 10.4 mph - N/A   Clear
2:15 PM 30.2 °F 22.6 °F -0.4 °F 27% 30.35 in 10.0 mi North 8.1 mph - N/A   Clear
2:35 PM 32.0 °F 26.4 °F -2.2 °F 23% 30.35 in 10.0 mi North 5.8 mph - N/A   Clear
2:55 PM 32.0 °F 26.4 °F -2.2 °F 23% 30.35 in 10.0 mi North 5.8 mph - N/A   Clear
3:15 PM 32.0 °F 28.7 °F -2.2 °F 23% 30.36 in 10.0 mi NNW 3.5 mph - N/A   Clear
3:35 PM 33.8 °F 29.6 °F -2.2 °F 22% 30.36 in 10.0 mi North 4.6 mph - N/A   Clear
3:55 PM 32.0 °F - -2.2 °F 23% 30.35 in 10.0 mi Calm Calm - N/A   Clear
4:15 PM 30.2 °F - 3.2 °F 32% 30.34 in 10.0 mi Calm Calm - N/A   Clear
4:35 PM 30.2 °F - 5.0 °F 34% 30.35 in 10.0 mi Calm Calm - N/A   Clear
4:55 PM 28.4 °F - 8.6 °F 43% 30.35 in 10.0 mi Calm Calm - N/A   Clear
5:15 PM 26.6 °F - 10.4 °F 51% 30.34 in 10.0 mi Calm Calm - N/A   Clear
5:35 PM 24.8 °F - 10.4 °F 54% 30.35 in 10.0 mi Calm Calm - N/A   Clear
5:55 PM 23.0 °F - 8.6 °F 54% 30.33 in 7.0 mi Calm Calm - N/A   Clear
6:15 PM 21.2 °F - 10.4 °F 63% 30.34 in 10.0 mi Calm Calm - N/A   Clear
6:35 PM 19.4 °F - 6.8 °F 58% 30.36 in 10.0 mi Calm Calm - N/A   Clear
6:55 PM 19.4 °F - 10.4 °F 68% 30.35 in 10.0 mi Calm Calm - N/A   Clear
7:15 PM 15.8 °F - 8.6 °F 73% 30.35 in 10.0 mi Calm Calm - N/A   Clear
7:35 PM 19.4 °F - 10.4 °F 68% 30.35 in 10.0 mi Calm Calm - N/A   Clear
7:55 PM 15.8 °F - 8.6 °F 73% 30.35 in 10.0 mi Calm Calm - N/A   Clear
8:15 PM 15.8 °F - 6.8 °F 68% 30.34 in 10.0 mi Calm Calm - N/A   Clear
8:35 PM 15.8 °F - 8.6 °F 73% 30.35 in 10.0 mi Calm Calm - N/A   Clear
8:55 PM 12.2 °F - 6.8 °F 79% 30.35 in 10.0 mi Calm Calm - N/A   Clear
9:15 PM 12.2 °F - 8.6 °F 85% 30.34 in 10.0 mi Calm Calm - N/A   Clear
9:35 PM 12.2 °F - 6.8 °F 79% 30.34 in 10.0 mi Calm Calm - N/A   Clear
9:55 PM 10.4 °F - 6.8 °F 85% 30.34 in 10.0 mi Calm Calm - N/A   Clear
10:15 PM 8.6 °F - 3.2 °F 79% 30.34 in 10.0 mi Calm Calm - N/A   Clear
10:35 PM 10.4 °F - 6.8 °F 85% 30.34 in 10.0 mi Calm Calm - N/A   Clear
10:55 PM 8.6 °F - 5.0 °F 85% 30.33 in 10.0 mi Calm Calm - N/A   Clear
11:15 PM 8.6 °F - 3.2 °F 79% 30.33 in 10.0 mi Calm Calm - N/A   Clear
11:35 PM 8.6 °F - 6.8 °F 92% 30.32 in 10.0 mi Calm Calm - N/A   Mostly Cloudy
11:55 PM 8.6 °F - 6.8 °F 92% 30.32 in 10.0 mi Calm Calm - N/A   Overcast